Location: Buckenweiler
(49.0667°N, 10.2500°E)
Time: 16:56:58
(UTC+00:00)

NOSS 2-2 (C) - Pass Details

Date: 18 January 2026
Orbit: 379 x 1692 km, 63.3° (Epoch: 16 February)

Event Time Altitude Azimuth Distance (km) Brightness Sun altitude
Rises 06:18:34 0° 224° (SW) 2,512 6.5 -7.7°
Reaches altitude 10° 06:20:49 10° 226° (SW) 1,529 5.4 -7.4°
Maximum altitude 06:24:04 75° 312° (NW) 411 2.5 -6.9°
Drops below altitude 10° 06:27:02 10° 39° (NE) 1,404 5.6 -6.4°
Sets 06:29:02 0° 41° (NE) 2,279 6.7 -6.1°
